| time (UTC) | temp C | wind direction | speed KPH | gust KPH | rain 1hr cm | rain 24hr cm | rain mn cm | humidity % | barometer mb |
| 20260503184523 | 29 | 316 | 6.4 | 9.7 | 0.00 | 0.00 | 0.00 | 21 | 1013.6 |
| 20260503184020 | 29 | 222 | 4.8 | 4.8 | 0.00 | 0.00 | 0.00 | 20 | 1013.5 |
| 20260503183516 | 29 | 142 | 9.7 | 12.9 | 0.00 | 0.00 | 0.00 | 22 | 1013.7 |
| 20260503183013 | 29 | 174 | 6.4 | 9.7 | 0.00 | 0.00 | 0.00 | 24 | 1013.8 |
| 20260503182512 | 29 | 145 | 6.4 | 11.3 | 0.00 | 0.00 | 0.00 | 23 | 1013.9 |
| 20260503182009 | 28 | 272 | 11.3 | 16.1 | 0.00 | 0.00 | 0.00 | 22 | 1013.8 |
| 20260503181507 | 28 | 218 | 9.7 | 12.9 | 0.00 | 0.00 | 0.00 | 24 | 1014.1 |
| 20260503181002 | 28 | 212 | 6.4 | 9.7 | 0.00 | 0.00 | 0.00 | 23 | 1014.2 |
| 20260503180500 | 28 | 227 | 8.0 | 11.3 | 0.00 | 0.00 | 0.00 | 20 | 1014.5 |
| 20260503175957 | 28 | 341 | 9.7 | 12.9 | 0.00 | 0.00 | 0.00 | 22 | 1014.2 |
| 20260503175455 | 28 | 320 | 8.0 | 12.9 | 0.00 | 0.00 | 0.00 | 20 | 1014.8 |
| 20260503174951 | 28 | 142 | 8.0 | 11.3 | 0.00 | 0.00 | 0.00 | 22 | 1015.0 |
| 20260503174449 | 28 | 306 | 4.8 | 4.8 | 0.00 | 0.00 | 0.00 | 24 | 1014.9 |
| 20260503173944 | 28 | 272 | 6.4 | 12.9 | 0.00 | 0.00 | 0.00 | 23 | 1014.9 |
| 20260503173440 | 28 | 120 | 4.8 | 8.0 | 0.00 | 0.00 | 0.00 | 26 | 1015.0 |
| 20260503172937 | 28 | 204 | 8.0 | 11.3 | 0.00 | 0.00 | 0.00 | 28 | 1015.2 |
| 20260503172434 | 28 | 99 | 8.0 | 12.9 | 0.00 | 0.00 | 0.00 | 29 | 1015.0 |
| 20260503171931 | 28 | 212 | 9.7 | 14.5 | 0.00 | 0.00 | 0.00 | 29 | 1015.3 |
| 20260503171427 | 27 | 174 | 3.2 | 3.2 | 0.00 | 0.00 | 0.00 | 29 | 1015.2 |
| 20260503170925 | 27 | 193 | 6.4 | 8.0 | 0.00 | 0.00 | 0.00 | 30 | 1015.3 |
| 20260503170421 | 27 | 130 | 6.4 | 11.3 | 0.00 | 0.00 | 0.00 | 30 | 1015.3 |
| 20260503150814 | 18 | 177 | 8.0 | 11.3 | 0.00 | 0.00 | 0.00 | 57 | 1016.6 |
| 20260503150309 | 18 | 230 | 6.4 | 8.0 | 0.00 | 0.00 | 0.00 | 57 | 1016.6 |
| 20260503140234 | 14 | 174 | 3.2 | 4.8 | 0.00 | 0.00 | 0.00 | 69 | 1017.1 |
| 20260503131203 | 10 | 139 | 3.2 | 4.8 | 0.00 | 0.00 | 0.00 | 77 | 1017.2 |
| 20260503130701 | 10 | 190 | 3.2 | 3.2 | 0.00 | 0.00 | 0.00 | 78 | 1017.4 |
| 20260503130158 | 9 | 137 | 3.2 | 4.8 | 0.00 | 0.00 | 0.00 | 79 | 1017.3 |
| 20260503120124 | 6 | 143 | 0.0 | 0.0 | 0.00 | 0.00 | 0.00 | 85 | 1017.0 |
| 20260503110551 | 7 | 136 | 0.0 | 0.0 | 0.00 | 0.00 | 0.00 | 84 | 1017.3 |
| 20260503090438 | 9 | 147 | 0.0 | 0.0 | 0.00 | 0.00 | 0.00 | 73 | 1018.4 |
| 20260503081404 | 10 | 148 | 0.0 | 0.0 | 0.00 | 0.00 | 0.00 | 67 | 1018.6 |
| 20260503080902 | 11 | 172 | 0.0 | 0.0 | 0.00 | 0.00 | 0.00 | 66 | 1018.5 |
| 20260503080358 | 11 | 163 | 0.0 | 1.6 | 0.00 | 0.00 | 0.00 | 65 | 1018.7 |
| 20260503072835 | 10 | 202 | 0.0 | 0.0 | 0.00 | 0.00 | 0.00 | 65 | 1018.8 |
| 20260503072332 | 10 | 170 | 0.0 | 0.0 | 0.00 | 0.00 | 0.00 | 65 | 1019.0 |
| 20260503071828 | 10 | 135 | 0.0 | 0.0 | 0.00 | 0.00 | 0.00 | 66 | 1019.1 |
| 20260503071325 | 10 | 136 | 0.0 | 0.0 | 0.00 | 0.00 | 0.00 | 66 | 1019.1 |
| 20260503070821 | 10 | 135 | 0.0 | 1.6 | 0.00 | 0.00 | 0.00 | 65 | 1019.0 |
| 20260503070320 | 10 | 135 | 0.0 | 0.0 | 0.00 | 0.00 | 0.00 | 65 | 1019.1 |
| 20260503060238 | 9 | 132 | 0.0 | 0.0 | 0.00 | 0.00 | 0.00 | 63 | 1019.8 |
| 20260503054725 | 10 | 132 | 0.0 | 0.0 | 0.00 | 0.00 | 0.00 | 61 | 1019.8 |
| 20260503054222 | 10 | 133 | 0.0 | 0.0 | 0.00 | 0.00 | 0.00 | 60 | 1019.7 |
| 20260503053720 | 10 | 133 | 0.0 | 0.0 | 0.00 | 0.00 | 0.00 | 59 | 1019.6 |
| 20260503053219 | 10 | 135 | 0.0 | 0.0 | 0.00 | 0.00 | 0.00 | 58 | 1019.7 |
| 20260503052714 | 11 | 131 | 0.0 | 0.0 | 0.00 | 0.00 | 0.00 | 58 | 1019.9 |
| 20260503052211 | 10 | 141 | 0.0 | 0.0 | 0.00 | 0.00 | 0.00 | 57 | 1019.7 |
| 20260503051707 | 10 | 127 | 0.0 | 0.0 | 0.00 | 0.00 | 0.00 | 58 | 1019.8 |
| 20260503051204 | 10 | 129 | 0.0 | 0.0 | 0.00 | 0.00 | 0.00 | 57 | 1019.9 |
| 20260503050655 | 10 | 131 | 0.0 | 0.0 | 0.00 | 0.00 | 0.00 | 57 | 1019.6 |
| 20260503050152 | 10 | 130 | 0.0 | 0.0 | 0.00 | 0.00 | 0.00 | 57 | 1019.9 |
| 20260503045649 | 11 | 132 | 0.0 | 0.0 | 0.00 | 0.00 | 0.00 | 57 | 1020.0 |
| 20260503045146 | 11 | 131 | 0.0 | 0.0 | 0.00 | 0.00 | 0.00 | 57 | 1019.8 |
| 20260503044643 | 11 | 132 | 0.0 | 0.0 | 0.00 | 0.00 | 0.00 | 56 | 1019.9 |
| 20260503044140 | 11 | 130 | 0.0 | 0.0 | 0.00 | 0.00 | 0.00 | 55 | 1019.7 |
| 20260503043637 | 11 | 129 | 0.0 | 0.0 | 0.00 | 0.00 | 0.00 | 54 | 1019.8 |
| 20260503043134 | 11 | 128 | 0.0 | 0.0 | 0.00 | 0.00 | 0.00 | 53 | 1019.8 |
| 20260503042630 | 11 | 130 | 0.0 | 0.0 | 0.00 | 0.00 | 0.00 | 54 | 1019.6 |
| 20260503042126 | 11 | 128 | 0.0 | 0.0 | 0.00 | 0.00 | 0.00 | 53 | 1019.7 |
| 20260503041623 | 11 | 129 | 0.0 | 0.0 | 0.00 | 0.00 | 0.00 | 52 | 1019.7 |
| 20260503041121 | 11 | 127 | 0.0 | 0.0 | 0.00 | 0.00 | 0.00 | 52 | 1019.7 |
| 20260503040618 | 12 | 128 | 0.0 | 0.0 | 0.00 | 0.00 | 0.00 | 51 | 1020.1 |
| 20260503040116 | 11 | 121 | 0.0 | 0.0 | 0.00 | 0.00 | 0.00 | 51 | 1019.9 |
| 20260503035612 | 11 | 132 | 0.0 | 0.0 | 0.00 | 0.00 | 0.00 | 52 | 1020.0 |
| 20260503035110 | 11 | 132 | 0.0 | 0.0 | 0.00 | 0.00 | 0.00 | 53 | 1019.8 |
| 20260503034607 | 11 | 132 | 0.0 | 0.0 | 0.00 | 0.00 | 0.00 | 53 | 1019.8 |
| 20260503034104 | 11 | 132 | 0.0 | 0.0 | 0.00 | 0.00 | 0.00 | 52 | 1019.8 |
| 20260503033601 | 11 | 132 | 0.0 | 0.0 | 0.00 | 0.00 | 0.00 | 52 | 1019.8 |
| 20260503033059 | 11 | 133 | 0.0 | 0.0 | 0.00 | 0.00 | 0.00 | 53 | 1020.0 |
| 20260503032557 | 11 | 135 | 0.0 | 0.0 | 0.00 | 0.00 | 0.00 | 52 | 1019.9 |
| 20260503032055 | 11 | 135 | 0.0 | 0.0 | 0.00 | 0.00 | 0.00 | 51 | 1020.0 |
| 20260503031552 | 11 | 133 | 0.0 | 0.0 | 0.00 | 0.00 | 0.00 | 51 | 1020.0 |
| 20260503031049 | 11 | 134 | 0.0 | 0.0 | 0.00 | 0.00 | 0.00 | 52 | 1019.9 |
| 20260503030545 | 11 | 134 | 0.0 | 0.0 | 0.00 | 0.00 | 0.00 | 52 | 1019.8 |
| 20260503030043 | 11 | 134 | 0.0 | 0.0 | 0.00 | 0.00 | 0.00 | 52 | 1019.9 |
| 20260503025539 | 11 | 134 | 0.0 | 0.0 | 0.00 | 0.00 | 0.00 | 52 | 1019.7 |
| 20260503025037 | 11 | 134 | 0.0 | 0.0 | 0.00 | 0.00 | 0.00 | 51 | 1019.9 |
| 20260503024533 | 11 | 135 | 0.0 | 0.0 | 0.00 | 0.00 | 0.00 | 52 | 1019.9 |
| 20260503024030 | 11 | 135 | 0.0 | 0.0 | 0.00 | 0.00 | 0.00 | 51 | 1019.7 |
| 20260503023527 | 11 | 135 | 0.0 | 0.0 | 0.00 | 0.00 | 0.00 | 50 | 1019.7 |
| 20260503023025 | 11 | 135 | 0.0 | 0.0 | 0.00 | 0.00 | 0.00 | 49 | 1019.9 |
| 20260503022520 | 12 | 135 | 0.0 | 0.0 | 0.00 | 0.00 | 0.00 | 48 | 1019.9 |
| 20260503022015 | 12 | 135 | 0.0 | 0.0 | 0.00 | 0.00 | 0.00 | 49 | 1019.7 |
| 20260503021512 | 12 | 135 | 0.0 | 0.0 | 0.00 | 0.00 | 0.00 | 48 | 1019.7 |
| 20260503021009 | 12 | 135 | 0.0 | 0.0 | 0.00 | 0.00 | 0.00 | 47 | 1019.9 |
| 20260503020507 | 12 | 135 | 0.0 | 0.0 | 0.00 | 0.00 | 0.00 | 46 | 1019.6 |
| 20260503020003 | 13 | 135 | 0.0 | 0.0 | 0.00 | 0.00 | 0.00 | 45 | 1019.7 |
| 20260503015500 | 13 | 135 | 0.0 | 0.0 | 0.00 | 0.00 | 0.00 | 44 | 1019.5 |
| 20260503014956 | 13 | 135 | 0.0 | 0.0 | 0.00 | 0.00 | 0.00 | 43 | 1019.6 |
| 20260503014453 | 13 | 135 | 0.0 | 0.0 | 0.00 | 0.00 | 0.00 | 43 | 1019.5 |
| 20260503013951 | 13 | 135 | 0.0 | 0.0 | 0.00 | 0.00 | 0.00 | 44 | 1019.6 |
| 20260503013448 | 14 | 135 | 0.0 | 0.0 | 0.00 | 0.00 | 0.00 | 42 | 1019.5 |
| 20260503012945 | 14 | 135 | 0.0 | 0.0 | 0.00 | 0.00 | 0.00 | 42 | 1019.3 |
| 20260503012443 | 15 | 135 | 0.0 | 0.0 | 0.00 | 0.00 | 0.00 | 39 | 1019.6 |
| 20260503011939 | 15 | 135 | 0.0 | 0.0 | 0.00 | 0.00 | 0.00 | 41 | 1019.6 |
| 20260503011436 | 15 | 135 | 0.0 | 0.0 | 0.00 | 0.00 | 0.00 | 39 | 1019.3 |
| 20260503010933 | 16 | 135 | 0.0 | 0.0 | 0.00 | 0.00 | 0.00 | 36 | 1019.5 |
| 20260503010429 | 16 | 135 | 0.0 | 0.0 | 0.00 | 0.00 | 0.00 | 35 | 1019.5 |
| 20260503005927 | 17 | 135 | 0.0 | 0.0 | 0.00 | 0.00 | 0.00 | 35 | 1019.5 |
| 20260503005424 | 17 | 136 | 0.0 | 0.0 | 0.00 | 0.00 | 0.00 | 35 | 1019.6 |
| 20260503004920 | 18 | 136 | 0.0 | 0.0 | 0.00 | 0.00 | 0.00 | 35 | 1019.7 |
| 20260503004417 | 18 | 137 | 0.0 | 0.0 | 0.00 | 0.00 | 0.00 | 31 | 1019.7 |
| 20260503003915 | 19 | 137 | 0.0 | 0.0 | 0.00 | 0.00 | 0.00 | 30 | 1019.7 |
| 20260503003411 | 20 | 137 | 0.0 | 0.0 | 0.00 | 0.00 | 0.00 | 31 | 1019.7 |
| 20260503002909 | 21 | 138 | 0.0 | 0.0 | 0.00 | 0.00 | 0.00 | 29 | 1019.7 |
| 20260503002406 | 22 | 135 | 0.0 | 0.0 | 0.00 | 0.00 | 0.00 | 30 | 1019.7 |
| 20260503001902 | 22 | 129 | 0.0 | 0.0 | 0.00 | 0.00 | 0.00 | 24 | 1019.8 |
| 20260503001358 | 22 | 151 | 0.0 | 0.0 | 0.00 | 0.00 | 0.00 | 26 | 1019.8 |
| 20260503000857 | 22 | 148 | 0.0 | 0.0 | 0.00 | 0.00 | 0.00 | 27 | 1019.9 |
| 20260503000353 | 22 | 111 | 0.0 | 0.0 | 0.00 | 0.00 | 0.00 | 25 | 1020.0 |
| 20260502235850 | 22 | 143 | 0.0 | 0.0 | 0.00 | 0.00 | 0.00 | 23 | 1019.8 |
| 20260502235347 | 22 | 152 | 0.0 | 0.0 | 0.00 | 0.00 | 0.00 | 25 | 1019.9 |
| 20260502234844 | 21 | 157 | 0.0 | 0.0 | 0.00 | 0.00 | 0.00 | 24 | 1020.0 |
| 20260502234341 | 22 | 171 | 0.0 | 0.0 | 0.00 | 0.00 | 0.00 | 23 | 1020.3 |
| 20260502233838 | 22 | 134 | 0.0 | 0.0 | 0.00 | 0.00 | 0.00 | 25 | 1020.2 |
| 20260502233334 | 22 | 232 | 1.6 | 1.6 | 0.00 | 0.00 | 0.00 | 22 | 1020.1 |
| 20260502232831 | 22 | 138 | 0.0 | 1.6 | 0.00 | 0.00 | 0.00 | 23 | 1020.2 |
| 20260502232327 | 22 | 158 | 0.0 | 0.0 | 0.00 | 0.00 | 0.00 | 25 | 1020.1 |
| 20260502231824 | 22 | 254 | 3.2 | 3.2 | 0.00 | 0.00 | 0.00 | 24 | 1020.1 |
| 20260502231322 | 22 | 172 | 0.0 | 1.6 | 0.00 | 0.00 | 0.00 | 26 | 1020.1 |
| 20260502230820 | 22 | 152 | 0.0 | 0.0 | 0.00 | 0.00 | 0.00 | 25 | 1020.2 |
| 20260502230318 | 22 | 103 | 0.0 | 1.6 | 0.00 | 0.00 | 0.00 | 27 | 1020.3 |
| 20260502225814 | 22 | 140 | 0.0 | 0.0 | 0.00 | 0.00 | 0.00 | 30 | 1020.4 |
| 20260502225311 | 22 | 74 | 1.6 | 1.6 | 0.00 | 0.00 | 0.00 | 27 | 1020.0 |
| 20260502224808 | 22 | 330 | 4.8 | 4.8 | 0.00 | 0.00 | 0.00 | 26 | 1020.2 |
| 20260502224304 | 22 | 347 | 3.2 | 3.2 | 0.00 | 0.00 | 0.00 | 27 | 1020.2 |
| 20260502223802 | 22 | 154 | 0.0 | 0.0 | 0.00 | 0.00 | 0.00 | 27 | 1020.3 |
| 20260502223300 | 22 | 198 | 1.6 | 3.2 | 0.00 | 0.00 | 0.00 | 26 | 1020.1 |
| 20260502222757 | 22 | 136 | 0.0 | 0.0 | 0.00 | 0.00 | 0.00 | 27 | 1020.3 |
| 20260502222254 | 22 | 168 | 0.0 | 0.0 | 0.00 | 0.00 | 0.00 | 27 | 1020.5 |
| 20260502221750 | 22 | 105 | 1.6 | 1.6 | 0.00 | 0.00 | 0.00 | 26 | 1020.4 |
| 20260502221246 | 22 | 122 | 1.6 | 4.8 | 0.00 | 0.00 | 0.00 | 26 | 1020.4 |
| 20260502220743 | 23 | 171 | 1.6 | 3.2 | 0.00 | 0.00 | 0.00 | 27 | 1020.5 |
| 20260502220239 | 23 | 158 | 0.0 | 0.0 | 0.00 | 0.00 | 0.00 | 26 | 1020.6 |
| 20260502215736 | 22 | 219 | 1.6 | 1.6 | 0.00 | 0.00 | 0.00 | 27 | 1020.7 |
| 20260502215233 | 22 | 213 | 1.6 | 3.2 | 0.00 | 0.00 | 0.00 | 30 | 1020.6 |
| 20260502214730 | 21 | 175 | 1.6 | 1.6 | 0.00 | 0.00 | 0.00 | 29 | 1020.5 |
| 20260502214227 | 21 | 175 | 1.6 | 1.6 | 0.00 | 0.00 | 0.00 | 29 | 1020.8 |
| 20260502213725 | 21 | 175 | 1.6 | 1.6 | 0.00 | 0.00 | 0.00 | 29 | 1020.8 |
| 20260502213222 | 21 | 175 | 1.6 | 1.6 | 0.00 | 0.00 | 0.00 | 29 | 1020.8 |
| 20260502212720 | 21 | 305 | 1.6 | 3.2 | 0.00 | 0.00 | 0.00 | 29 | 1021.1 |
| 20260502212218 | 21 | 340 | 6.4 | 8.0 | 0.00 | 0.00 | 0.00 | 29 | 1021.1 |
| 20260502211714 | 21 | 288 | 3.2 | 3.2 | 0.00 | 0.00 | 0.00 | 27 | 1021.1 |
| 20260502211211 | 21 | 83 | 0.0 | 1.6 | 0.00 | 0.00 | 0.00 | 29 | 1021.3 |
| 20260502210708 | 22 | 181 | 3.2 | 4.8 | 0.00 | 0.00 | 0.00 | 27 | 1021.3 |
| 20260502210205 | 21 | 97 | 3.2 | 4.8 | 0.00 | 0.00 | 0.00 | 30 | 1021.4 |
| 20260502205702 | 21 | 97 | 3.2 | 4.8 | 0.00 | 0.00 | 0.00 | 30 | 1021.4 |
| 20260502205158 | 21 | 97 | 3.2 | 4.8 | 0.00 | 0.00 | 0.00 | 30 | 1021.7 |
| 20260502204655 | 21 | 187 | 0.0 | 1.6 | 0.00 | 0.00 | 0.00 | 28 | 1021.6 |
| 20260502204153 | 21 | 9 | 1.6 | 3.2 | 0.00 | 0.00 | 0.00 | 28 | 1021.6 |
| 20260502203650 | 21 | 23 | 1.6 | 1.6 | 0.00 | 0.00 | 0.00 | 30 | 1021.8 |
| 20260502203149 | 21 | 295 | 3.2 | 4.8 | 0.00 | 0.00 | 0.00 | 28 | 1021.6 |
| 20260502202643 | 21 | 258 | 0.0 | 0.0 | 0.00 | 0.00 | 0.00 | 30 | 1021.8 |
| 20260502202141 | 21 | 311 | 3.2 | 3.2 | 0.00 | 0.00 | 0.00 | 33 | 1021.8 |
| 20260502201637 | 22 | 294 | 1.6 | 3.2 | 0.00 | 0.00 | 0.00 | 32 | 1021.8 |
| 20260502201134 | 21 | 145 | 0.0 | 1.6 | 0.00 | 0.00 | 0.00 | 33 | 1021.8 |
| 20260502200630 | 21 | 113 | 0.0 | 1.6 | 0.00 | 0.00 | 0.00 | 32 | 1022.1 |
| 20260502200127 | 21 | 162 | 1.6 | 3.2 | 0.00 | 0.00 | 0.00 | 32 | 1022.3 |
| 20260502195626 | 20 | 102 | 0.0 | 1.6 | 0.00 | 0.00 | 0.00 | 31 | 1022.1 |
| 20260502195121 | 20 | 131 | 0.0 | 0.0 | 0.00 | 0.00 | 0.00 | 35 | 1022.3 |
| 20260502194618 | 20 | 169 | 0.0 | 1.6 | 0.00 | 0.00 | 0.00 | 33 | 1022.2 |
| 20260502194114 | 20 | 127 | 0.0 | 0.0 | 0.00 | 0.00 | 0.00 | 33 | 1022.1 |
| 20260502193611 | 20 | 128 | 0.0 | 0.0 | 0.00 | 0.00 | 0.00 | 34 | 1022.3 |
| 20260502193108 | 21 | 318 | 1.6 | 4.8 | 0.00 | 0.00 | 0.00 | 32 | 1022.4 |
| 20260502192603 | 20 | 154 | 3.2 | 3.2 | 0.00 | 0.00 | 0.00 | 35 | 1022.6 |
| 20260502192056 | 20 | 357 | 4.8 | 4.8 | 0.00 | 0.00 | 0.00 | 34 | 1022.4 |
| 20260502191552 | 21 | 117 | 0.0 | 1.6 | 0.00 | 0.00 | 0.00 | 33 | 1022.4 |
| 20260502191050 | 20 | 80 | 0.0 | 1.6 | 0.00 | 0.00 | 0.00 | 34 | 1022.5 |
| 20260502190547 | 20 | 308 | 1.6 | 3.2 | 0.00 | 0.00 | 0.00 | 36 | 1022.5 |
| 20260502190044 | 19 | 142 | 1.6 | 3.2 | 0.00 | 0.00 | 0.00 | 38 | 1022.6 |
| 20260502185539 | 19 | 199 | 0.0 | 1.6 | 0.00 | 0.00 | 0.00 | 35 | 1022.9 |
| 20260502185036 | 18 | 358 | 4.8 | 9.7 | 0.00 | 0.00 | 0.00 | 36 | 1022.9 |